Location: ?????
(53.1708°N, 59.2452°E)
Time: 10:51:04
(UTC+00:00)

Daily predictions for brighter satellites

Satellite Brightness Start Highest point End
(mag) Time Altitude Azimuth Time Altitude Azimuth Time Altitude Azimuth
Cosmos 2227 4.5 14:37:13 10° S 14:42:41 47° ESE 14:48:10 10° NE
NOSS 3-2 (A) 4.2 14:35:41 10° NW 14:42:43 62° NNE 14:50:49 10° ESE
CZ-2C R/B 3.2 14:38:02 10° SSE 14:43:19 83° ENE 14:48:56 10° NNW
Cosmos 1943 3.4 14:39:21 10° NNW 14:45:01 82° WSW 14:50:41 10° SSE
Cosmos 990 Rocket 4.1 14:40:56 10° S 14:45:57 56° ESE 14:51:00 10° NNE
Cosmos 2061 Rocket 4.5 14:39:45 10° SSW 14:46:01 71° WNW 14:52:25 10° N
SL-08 RB Rocket 4.2 14:41:56 10° SE 14:46:13 40° ENE 14:50:28 10° N
SJ 16-02 1.4 14:47:24 10° SSW 14:51:48 85° WNW 14:56:13 10° NNE
NOSS 2-3 (D) 4.2 14:49:26 10° WSW 14:53:51 69° NW 14:59:20 10° NE
SJ-11-01 4.3 14:49:36 10° SSE 14:54:19 86° ENE 14:59:04 10° NNW
Meteor 1-21 4.2 14:49:08 10° NNW 14:54:48 87° ENE 15:00:24 10° SSE
Okean 2 Rocket 4.1 14:52:34 10° SE 14:56:20 27° E 15:00:06 10° NNE
Ariane Rocket 3.4 14:51:58 10° SE 14:56:47 46° ENE 15:01:39 10° N
Cosmos 1833 Rocket 4.4 14:53:52 10° NNW 14:57:52 19° NNE 15:01:52 10° ENE
Okean-O 4.1 14:54:39 10° S 14:58:50 41° W 15:03:04 10° NNW
Cosmos 2227 Rocket 3.8 14:54:05 10° WSW 14:59:19 37° NW 15:04:34 10° NNE
ISS -1.5 15:01:03 10° SSE 15:01:35 10° SE 15:02:08 10° SE
CSL-04 Debris 4.5 14:56:23 10° S 15:01:46 73° WSW 15:07:11 10° NNW
Lacrosse 5 rocket 1.5 14:58:36 10° WSW 15:02:53 85° NNW 15:07:24 10° ENE
Cosmos 1603 4.5 14:58:41 10° NW 15:04:14 55° WSW 15:09:42 10° S
SPOT 3 Rocket 4.5 15:01:50 10° ESE 15:06:15 30° ENE 15:10:43 10° N
USA 234 4.4 15:01:50 10° E 15:06:33 21° SE 15:11:15 10° S
Abrixas rocket 3.2 15:04:32 10° SW 15:06:56 24° SSE 15:08:41 14° ESE
Timation 1 Rocket 4.4 15:01:26 10° SSW 15:07:25 86° WNW 15:13:27 10° NNE
USA 116 3.3 15:04:18 10° NNE 15:07:37 86° E 15:11:17 10° SSW
GP-B 4.4 15:03:50 10° N 15:08:06 46° W 15:12:20 10° SSW
Cosmos 1300 Rocket 4.2 15:06:14 10° SSE 15:10:11 34° E 15:14:12 10° NNE
Cosmos 1867 3.7 15:05:35 10° NW 15:11:04 77° SW 15:16:31 10° SE
CSL-04 Rocket 4.2 15:06:19 10° S 15:11:42 65° WSW 15:17:13 10° NNW
Cosmos 1898 Rocket 3.4 15:07:24 10° SSW 15:12:34 81° ESE 15:17:47 10° NNE
Cosmos 1437 3.7 15:09:57 10° NNW 15:12:51 46° W 15:15:45 10° S
YAOGAN 1 4.2 15:11:15 10° SSW 15:15:17 38° W 15:19:22 10° NNW
USA 229 DEB 4.4 15:09:13 10° WSW 15:15:45 56° NNW 15:22:43 10° NE
USA 229 4.4 15:09:19 10° WSW 15:15:50 56° NNW 15:22:49 10° NE
NOSS 3-2 (C) 4.1 15:09:40 10° NW 15:16:44 64° NE 15:23:51 14° ESE
Cosmos 1536 Rocket 3.8 15:18:14 10° N 15:22:33 49° ENE 15:26:53 10° SSE
Cosmos 2233 Rocket 4.4 15:16:22 10° SSW 15:22:34 68° WNW 15:28:46 10° N
Cosmos 858 Rocket 4.4 15:20:43 10° SSW 15:25:56 77° ESE 15:31:10 10° NNE
NOSS 3-1 (A) 4.2 15:22:08 10° WSW 15:27:51 56° NNW 15:34:42 10° NE
Nadezhda 4 Rocket 4.0 15:22:12 10° N 15:28:17 61° ENE 15:34:20 10° SSE
Cosmos 1072 Rocket 4.5 15:22:19 10° S 15:28:28 66° E 15:34:47 10° NNE
Cosmos 372 Rocket 4.2 15:27:25 10° S 15:32:25 47° ESE 15:37:26 10° NE
Cosmos 1626 3.6 15:30:45 10° NNE 15:33:31 19° ENE 15:34:13 18° E
Cosmos 2034 Rocket 4.2 15:28:37 10° SSE 15:34:44 51° E 15:40:50 10° NNE
Cosmos 1782 Rocket 4.2 15:31:50 10° SSW 15:36:12 61° WNW 15:40:38 10° N
Cosmos 1025 Rocket 3.0 15:32:45 10° N 15:37:09 84° ENE 15:41:32 10° SSE
Cosmos 2151 Rocket 3.9 15:33:07 10° SSE 15:37:21 46° E 15:41:40 10° NNE
Cosmos 2082 Rocket 3.9 15:33:17 10° NNW 15:37:27 21° NNE 15:41:03 12° ENE
CZ-4 R/B 4.3 15:36:50 10° SW 15:39:57 20° W 15:43:04 10° NW
Cosmos 1975 4.2 15:36:15 10° SW 15:40:09 43° WNW 15:44:05 10° N
NOSS 8 (H) 4.0 15:37:17 10° SW 15:40:20 77° SE 15:43:26 10° NE
NOSS 8 (E) 4.4 15:37:24 10° SW 15:40:29 67° NW 15:43:34 10° NE
Cosmos 1937 Rocket 3.6 15:37:14 10° SSW 15:42:30 82° WNW 15:47:45 10° NNE
CREW DRAGON DEMO-1 DEB 2.8 15:40:09 10° W 15:43:10 65° S 15:44:13 35° ESE
NOSS 2-2 (E) 3.3 15:40:02 10° SSW 15:43:29 52° SE 15:47:32 10° NE
MOS 1 Rocket 3.3 15:39:08 10° N 15:43:43 75° WNW 15:48:04 10° SSW
COSMOS 2406 4.1 15:39:56 10° NNW 15:45:05 34° NE 15:48:10 20° E
Cosmos 1125 Rocket 4.3 15:40:48 10° SSE 15:45:18 29° E 15:49:50 10° NE
Meteor 1-24 Rocket 4.3 15:41:58 10° N 15:47:01 37° ENE 15:49:47 23° ESE
BREEZE-M DEB (TANK) 4.1 15:44:36 10° WSW 15:47:32 31° SSW 15:52:03 16° SE
ATLAS 2AS CENTAUR R/B 4.2 15:50:21 18° E 15:50:21 18° E 15:54:01 10° ENE
USA 186 2.6 15:46:17 10° S 15:49:20 50° W 15:52:31 10° NNW
Cosmos 1805 4.1 15:50:16 28° E 15:50:35 29° E 15:54:00 10° NNE
In-Cosmos 22 4.2 15:46:10 10° NNW 15:51:28 76° W 15:56:46 10° S
NOSS 2-2 (D) 3.3 15:48:28 10° SSW 15:51:54 50° SE 15:55:51 10° NE
OBJECT-B 0.7 15:55:00 31° SSE 15:56:24 76° ENE 15:59:40 10° N
Cosmos 1674 2.6 15:54:17 10° N 15:58:09 70° ENE 16:00:03 28° SSE
CENTAUR R/B 3.1 15:50:21 10° NW 15:58:10 84° NE 16:04:11 23° SE
ERS-1 Rocket 4.4 15:57:24 19° ENE 15:58:45 21° NE 16:02:29 10° N
CZ-2C R/B 2.6 15:54:14 10° NNE 15:59:46 75° ESE 16:05:21 10° S
BREEZE-M R/B 4.3 15:51:34 10° SW 15:59:54 36° S 16:00:53 30° SE
ARGOS 4.3 15:55:05 10° SSW 16:00:10 43° W 16:05:18 10° NNW
H-2A R/B 3.8 15:56:27 10° SSW 16:00:51 32° W 16:05:23 10° NNW
ATLAS 3B R/B 3.2 15:57:36 10° NW 16:04:10 50° NNE 16:08:20 23° E
SL-14 R/B 3.9 16:01:19 10° N 16:04:55 34° ENE 16:05:17 34° E
FREGAT/IRIS 3.6 16:03:38 20° SSW 16:05:03 37° W 16:07:32 10° NNW
USA 238 DEB 4.0 15:58:24 10° NW 16:05:32 73° SW 16:10:44 21° SSE
USA 238 4.0 15:58:30 10° NW 16:05:39 73° SW 16:10:49 22° SSE
Resurs 01 Rocket 1.7 16:04:07 31° SE 16:06:05 60° ENE 16:10:29 10° N
Cosmos 1733 4.3 16:07:29 28° ENE 16:07:29 28° ENE 16:10:04 10° NNE
Cosmos 1634 Rocket 4.3 16:05:09 23° SE 16:08:31 42° E 16:14:18 10° NNE
Landsat 7 4.5 16:08:00 32° E 16:09:18 38° ENE 16:13:42 10° N
Cosmos 1048 Rocket 4.3 16:04:28 10° NNW 16:09:45 69° WSW 16:13:37 19° S
Lacrosse 4 Rocket 3.1 16:09:03 10° NNW 16:12:06 20° NNE 16:13:18 18° NE
Cosmos 1844 4.0 16:06:59 10° S 16:12:17 41° ESE 16:17:33 10° NE
Cosmos 2285 Rocket 4.2 16:06:44 10° S 16:12:38 44° ESE 16:18:37 10° NE
SPOT 1/Viking Rocket 4.2 16:12:30 31° E 16:13:57 37° ENE 16:18:41 10° N
SJ-6B 3.8 16:10:31 10° S 16:14:00 42° W 16:17:37 10° NNW
KORONAS-FOTON 3.9 16:11:18 10° NNW 16:15:16 81° W 16:17:03 31° S
Cosmos 2263 Rocket 3.1 16:12:07 10° SW 16:17:32 49° NW 16:22:59 10° NNE
Cosmos 1269 Rocket 4.1 16:13:23 10° NNW 16:18:41 63° ENE 16:20:38 38° SE
Cosmos 1627 Rocket 4.5 16:13:54 10° N 16:20:19 73° ENE 16:24:07 26° SSE
MetOp-B 4.2 16:18:26 35° SE 16:20:36 60° ENE 16:25:54 10° N
ATLAS CENTAUR R/B 3.8 16:18:58 10° WNW 16:21:29 17° NNW 16:23:58 10° NNE
Cosmos 1766 3.5 16:22:59 49° E 16:22:59 49° E 16:26:33 10° NNE
Cosmos 1464 Rocket 4.4 16:17:07 10° SSW 16:23:10 62° WNW 16:29:20 10° N
ARIANE 5 R/B 2.7 16:22:36 46° ESE 16:23:24 54° ENE 16:27:39 10° N
IGS 5A 3.8 16:24:13 45° E 16:24:33 46° ENE 16:28:32 10° N
Cosmos 1844 Rocket 2.6 16:19:09 10° SSW 16:24:36 59° ESE 16:30:07 10° NE
Cosmos 1092 Rocket 3.9 16:20:25 10° N 16:26:36 87° W 16:30:55 21° S
Spot 2 Rocket 3.7 16:27:44 42° ESE 16:28:55 52° ENE 16:33:49 10° N
Cosmos 2195 Rocket 4.4 16:23:44 10° N 16:30:05 89° E 16:33:57 25° S
SJ 16-02 4.4 16:28:15 10° W 16:31:06 17° NW 16:33:58 10° N
Okean 2 Rocket 4.3 16:29:57 10° SW 16:34:15 42° WNW 16:38:32 10° N
Cosmos 2026 Rocket 4.0 16:27:55 10° N 16:34:19 84° E 16:37:47 29° SSE
Meteor 1-15 Rocket 4.2 16:29:40 10° SSW 16:35:19 89° WNW 16:41:05 10° NNE
NOSS 2-2 (C) 3.3 16:32:52 10° SW 16:36:27 74° NW 16:40:43 10° NE
ISS -1.3 16:34:34 10° SW 16:35:14 15° SW 16:35:14 15° SW
Okean 1 Rocket 3.0 16:37:05 38° S 16:38:47 85° E 16:43:19 10° NNE
Abrixas rocket 4.5 16:39:15 10° WSW 16:39:57 15° WSW 16:39:57 15° WSW
Cosmos 1340 Rocket 4.3 16:44:11 26° NE 16:44:11 26° NE 16:46:09 10° NNE
Lacrosse 5 rocket 2.2 16:38:08 10° W 16:42:26 51° N 16:43:59 35° NE
Cosmos 1833 Rocket 3.0 16:37:31 10° NNW 16:43:06 54° NE 16:44:24 45° E
Cosmos 494 Rocket 4.5 16:38:02 10° NNW 16:43:12 57° WSW 16:45:32 31° S
SPOT 3 Rocket 4.1 16:42:18 22° S 16:45:27 53° W 16:50:31 10° NNW
Cosmos 2298 Rocket 4.2 16:40:21 10° SSW 16:45:40 73° WNW 16:51:03 10° NNE
Cosmos 1428 Rocket 4.5 16:40:26 10° NNW 16:46:46 86° W 16:49:49 33° S
CZ-2C R/B 3.5 16:43:05 10° NNE 16:47:33 89° WNW 16:49:03 42° SSW
USA 234 3.2 16:44:14 11° ENE 16:50:33 58° SE 16:57:00 10° SW
Cosmos 2251 Rocket 4.2 16:46:08 10° NNW 16:51:15 41° NE 16:51:52 39° ENE
Cosmos 2279 Rocket 4.1 16:51:44 48° SE 16:52:57 56° E 16:59:04 10° NNE
Cosmos 2142 Rocket 4.4 16:51:55 44° SSE 16:53:48 64° E 16:59:59 10° NNE
Terra 2.6 17:01:26 37° NE 17:01:26 37° NE 17:05:27 10° N
Meteor 2-5 Rocket 4.3 16:57:22 10° NNW 17:02:50 54° W 17:05:36 28° SSW
Cosmos 1892 Rocket 3.5 17:01:31 10° NNW 17:05:46 78° WNW 17:05:46 78° WNW
Cosmos 1626 3.1 17:05:27 10° NNW 17:08:46 44° W 17:08:46 44° W
Exosat Rocket 3.5 17:03:54 10° SSW 17:09:18 80° WNW 17:14:21 10° NNE
CARTOSAT-1 4.0 17:15:16 55° NNE 17:15:16 55° NNE 17:18:48 10° N
Meteor 1-22 Rocket 4.4 17:18:34 40° SSW 17:20:51 78° WNW 17:26:57 10° NNE
SPOT 5 3.0 17:21:41 73° ENE 17:21:41 73° ENE 17:26:52 10° NNW
Cosmos 2082 Rocket 2.2 17:17:07 10° NNW 17:22:42 62° NE 17:22:53 62° ENE
Cosmos 1125 Rocket 4.1 17:21:53 10° SW 17:27:07 56° WNW 17:32:22 10° NNE
COSMOS 2406 3.3 17:24:10 10° NW 17:29:47 64° WSW 17:30:13 62° SW
Okean 1-7 Rocket 4.1 17:27:40 10° NNW 17:31:48 58° WNW 17:31:48 58° WNW
Cosmos 2266 Rocket 3.7 17:30:09 10° N 17:36:16 81° E 17:36:26 80° ESE
ERS-1 Rocket 3.1 17:37:24 74° NW 17:37:24 74° NW 17:42:06 10° NNW
ATLAS 2AS CENTAUR R/B 2.9 17:37:35 59° SSE 17:38:38 64° SE 17:46:22 10° NE
Cosmos 1809 Rocket 4.4 17:33:59 10° N 17:40:09 68° ENE 17:40:09 68° ENE
Cosmos 1655 Rocket 4.0 17:35:36 10° NNW 17:41:51 76° W 17:42:37 67° SSW
Cosmos 2098 Rocket 4.1 17:34:32 10° NNW 17:41:53 80° W 17:42:57 65° SSW
Resurs 01 Rocket 3.7 17:41:42 18° WSW 17:42:58 20° W 17:46:19 10° NW
Meteor 1-21 Rocket 4.2 17:38:44 10° NNW 17:44:17 84° N 17:44:17 84° N
CENTAUR R/B 4.1 17:41:22 10° NW 17:48:36 37° WSW 17:51:22 30° SSW
Lacrosse 4 Rocket 3.0 17:47:18 10° NW 17:49:36 33° NNW 17:49:36 33° NNW
Cosmos 909 Rocket 3.9 17:46:17 10° NW 17:52:59 83° SW 17:53:07 83° SSW
SPOT 1/Viking Rocket 4.4 17:53:08 42° WSW 17:53:21 42° W 17:58:16 10° NNW
ATLAS 3B R/B 2.7 17:48:26 10° NW 17:55:12 66° SW 17:55:34 65° SSW
Cosmos 2278 Rocket 3.4 17:58:55 31° NE 17:58:55 31° NE 18:01:48 10° NE
ATLAS CENTAUR R/B 3.9 17:59:25 10° NNW 18:01:22 15° N 18:01:22 15° N
Cosmos 1844 Rocket 4.1 18:03:44 10° WSW 18:08:50 35° NW 18:13:58 10° NNE
Meteor 2-14 Rocket 4.5 18:04:19 10° N 18:09:58 76° N 18:09:58 76° N
Lacrosse 5 rocket 3.5 18:17:34 10° WNW 18:19:37 26° WNW 18:19:37 26° WNW
Cosmos 1833 Rocket 3.9 18:21:47 10° NW 18:26:05 33° W 18:26:05 33° W
USA 234 3.3 18:27:14 10° ENE 18:33:47 76° NNW 18:40:20 10° W
Terra 3.5 18:40:19 29° WNW 18:40:19 29° WNW 18:43:13 10° NNW
MOS 1-B Rocket 4.3 18:32:50 10° NNE 18:39:16 83° NE 18:39:16 83° NE
NOSS 3-4 (A) 4.0 19:06:43 56° NNW 19:06:43 56° NNW 19:12:58 10° NE
Cosmos 2082 Rocket 3.9 19:01:40 10° NW 19:04:43 25° WNW 19:04:43 25° WNW
NOSS 3-4 (C) 4.0 19:06:54 56° NNW 19:06:54 56° NNW 19:13:04 10° NE
COSMOS 2455 4.1 19:09:37 33° NE 19:09:37 33° NE 19:12:46 10° NE
Cosmos 1943 Rocket 4.2 19:12:44 19° NE 19:12:44 19° NE 19:14:26 10° NE
CZ-4C R/B 3.8 19:31:41 29° NE 19:31:41 29° NE 19:34:47 10° NE
ATLAS 2AS CENTAUR R/B 3.5 19:24:47 23° W 19:29:57 57° NNW 19:37:34 10° NE
Cosmos 2369 Rocket 4.1 19:35:44 21° NE 19:35:44 21° NE 19:37:47 10° NE
Cosmos 2278 Rocket 3.6 19:40:44 34° NW 19:40:44 34° NW 19:45:49 10° NNE
NOSS 3-1 (C) 4.0 19:47:19 10° NW 19:54:09 72° NNE 19:54:09 72° NNE
USA 234 3.6 20:10:08 10° E 20:19:22 36° WNW 20:23:04 10° WNW
Cosmos 2227 Rocket 4.1 20:13:13 10° NNW 20:17:54 25° NE 20:20:03 20° ENE
SL-16 R/B 3.2 20:42:07 47° ENE 20:42:07 47° ENE 20:47:58 10° N
USA 229 DEB 4.3 20:44:55 10° NW 20:49:59 50° WNW 20:49:59 50° WNW
USA 229 4.3 20:45:01 10° NW 20:50:06 50° NW 20:50:06 50° NW
Cosmos 1943 Rocket 3.3 20:54:15 40° NNW 20:54:15 40° NNW 20:58:22 10° NNE
COSMOS 2455 4.1 20:52:44 34° NW 20:53:15 35° NNW 20:58:46 10° NE
CZ-2D R/B 3.7 20:54:31 10° NNE 20:58:07 28° ENE 20:58:07 28° ENE
ATLAS 5 CENTAUR R/B 4.2 21:03:21 14° ENE 21:03:21 14° ENE 21:04:12 10° ENE
NOSS 3-1 (A) 4.0 20:56:58 10° NW 21:02:58 66° WNW 21:02:58 66° WNW
Cosmos 2297 Rocket 3.1 21:00:06 10° NNW 21:05:22 46° NE 21:05:22 46° NE
Nadezhda 1 Rocket 4.3 21:13:26 62° NNE 21:13:26 62° NNE 21:18:30 10° NNE
Resurs 1-4 Rocket 3.4 21:08:54 10° NNE 21:12:46 35° ENE 21:12:46 35° ENE
Cosmos 2369 Rocket 3.1 21:17:31 43° NNW 21:17:31 43° NNW 21:22:01 10° NNE
CZ-4C R/B 3.3 21:16:51 39° NW 21:17:37 41° NNW 21:23:59 10° NE
Gbstr 26 Del rocket 4.4 21:19:49 73° SE 21:19:49 73° SE 21:27:06 10° E
ATLAS 2AS CENTAUR R/B 4.1 21:15:09 10° WNW 21:22:28 38° N 21:29:25 10° ENE
SL-8 Rocket 4.0 21:36:46 10° N 21:43:01 77° ENE 21:43:01 77° ENE
Cosmos 2221 4.1 21:52:23 32° NNE 21:52:23 32° NNE 21:54:46 10° NNE
Cosmos 2218 Rocket 4.0 21:47:42 10° N 21:54:10 79° E 21:54:37 74° ESE
Cosmos 2366 rocket 4.0 21:50:32 10° N 21:56:51 79° E 21:57:18 74° ESE
Meteor 2-2 Rocket 4.3 21:57:16 76° NE 21:57:16 76° NE 22:02:42 10° NNE
USA 234 3.1 21:52:57 10° ESE 21:59:30 89° NNE 22:03:10 29° WNW
Cosmos 2227 Rocket 2.4 21:57:05 10° NNW 22:01:46 62° NNW 22:01:46 62° NNW
Sich 1 4.4 22:02:29 10° N 22:05:04 35° N 22:05:04 35° N
Cosmos 864 Rocket 4.3 22:07:58 10° NNW 22:14:08 85° W 22:14:22 82° SSW
Lacrosse 5 3.8 22:14:23 18° ESE 22:14:23 18° ESE 22:17:33 10° E
ADEOS II 2.5 22:10:58 10° NNE 22:16:07 53° E 22:16:36 51° ESE
Cosmos 2219 4.1 22:10:37 10° NW 22:14:03 37° NW 22:14:03 37° NW
CZ-3B R/B 3.8 22:19:29 23° ESE 22:19:29 23° ESE 22:22:56 10° ENE
Cosmos 2181 Rocket 3.8 22:18:15 78° SSW 22:18:43 89° W 22:24:57 10° N
CZ-4B R/B 3.8 22:15:42 10° NNE 22:20:42 60° ESE 22:20:56 59° ESE
Cosmos 1302 Rocket 4.2 22:24:00 60° NNW 22:24:00 60° NNW 22:28:47 10° NNE
SL-16 R/B 3.3 22:27:14 36° WNW 22:27:14 36° WNW 22:31:39 10° NNW
Cosmos 1959 Rocket 4.3 22:19:59 10° NNW 22:26:03 68° W 22:26:03 68° W
Cosmos 1241 Rocket 4.4 22:25:35 68° S 22:26:19 78° SE 22:32:47 10° NE
IDEFIX/ARIANE 42P 4.2 22:24:33 10° NNE 22:29:10 30° E 22:32:05 18° SE
SL-08 R/B 3.5 22:29:15 62° E 22:29:39 66° ENE 22:34:16 10° N
Cosmos 1633 Rocket 3.4 22:31:02 10° N 22:34:55 64° NNE 22:34:55 64° NNE
Cosmos 1943 Rocket 4.2 22:35:45 14° NW 22:38:07 18° NNW 22:41:49 10° NNE
ARIANE 5 R/B 3.4 22:34:27 10° NNE 22:39:20 43° E 22:41:11 31° SE
CZ-2D R/B 2.4 22:34:19 10° N 22:39:26 53° WNW 22:39:26 53° WNW
IRS-1D 3.5 22:34:49 10° NNE 22:40:13 86° ESE 22:40:51 70° S
Cosmos 1666 Rocket 3.9 22:35:57 10° NNW 22:39:36 58° NNW 22:39:36 58° NNW
ATLAS 5 CENTAUR R/B 1.7 22:44:53 67° NNW 22:44:53 67° NNW 22:49:34 10° NE
AQUA 4.0 22:40:01 10° N 22:44:23 59° NW 22:44:23 59° NW
NPP 3.8 22:40:00 10° N 22:45:17 57° WNW 22:45:29 56° WNW
Cosmos 1151 Rocket 3.7 22:46:55 46° SE 22:47:33 50° E 22:51:46 10° NNE
Cosmos 1606 3.3 22:49:10 53° NNE 22:49:10 53° NNE 22:52:10 10° NNE
Cosmos 2297 Rocket 3.4 22:44:19 10° NW 22:47:05 27° WNW 22:47:05 27° WNW
CBERS-1 3.9 22:47:29 10° NNE 22:52:38 81° WNW 22:53:15 68° SW
Resurs 1-4 Rocket 2.6 22:48:47 10° N 22:53:43 41° WNW 22:53:50 41° WNW
Cosmos 2082 3.5 22:48:16 10° NW 22:53:57 73° WSW 22:57:45 22° SSE
Cosmos 2369 Rocket 4.2 22:59:18 13° WNW 23:02:01 18° NNW 23:05:49 10° NNE
Genesis I 3.7 23:03:13 50° NNW 23:03:13 50° NNW 23:06:41 10° NE
Meteor 1-25 Rocket 4.2 22:59:07 10° NNW 23:04:59 83° WSW 23:08:37 24° S
CZ-4C R/B 4.4 23:01:40 10° SE 23:05:03 39° ENE 23:08:25 10° N
USA 267 3.4 22:58:37 10° ENE 23:05:08 64° SE 23:07:37 39° SSW
NOSS 2-1 (E) 4.2 23:05:53 37° NNW 23:05:53 37° NNW 23:09:42 10° NE
Gbstr 26 Del rocket 4.4 23:02:22 31° W 23:06:45 78° S 23:14:20 10° ESE
Cosmos 1933 3.3 23:06:33 76° SSE 23:06:49 83° E 23:10:56 10° NNE
CZ-4C R/B 4.0 23:02:03 10° WNW 23:07:42 35° N 23:14:21 10° ENE
NOSS 2-2 (E) 4.4 23:03:31 10° NW 23:08:54 64° SW 23:16:23 10° SSE
USA 305 4.2 23:10:22 28° SSE 23:10:46 28° SE 23:14:25 10° E
IRS-P3 4.0 23:05:47 10° NNE 23:11:10 84° WNW 23:12:55 44° SSW
Cosmos 1697 Rocket 3.0 23:09:02 35° S 23:11:21 63° ESE 23:16:55 10° NE
CZ-2D R/B 4.0 23:09:40 10° NNE 23:13:48 58° E 23:15:27 34° SSE
ASTEX 1 3.7 23:09:08 10° N 23:14:08 66° E 23:17:25 21° S
SJ 16-02 2.7 23:09:57 10° NNW 23:14:08 40° ENE 23:18:17 10° SE
USA 306 4.1 23:14:26 29° SSE 23:14:58 30° SE 23:18:41 10° E
ATLAS 2AS CENTAUR R/B 3.8 23:07:35 10° NW 23:15:07 48° NNE 23:22:07 10° E
Cosmos 1980 Rocket 3.3 23:11:43 18° S 23:15:32 40° ESE 23:20:47 10° NE
NOSS 2-2 (D) 4.3 23:12:01 10° NW 23:17:18 66° SW 23:24:39 10° SSE
CZ-2C R/B 4.4 23:13:59 10° NE 23:18:19 27° E 23:22:41 10° SSE
Cosmos 2263 Rocket 2.7 23:14:58 10° NNW 23:20:35 62° NE 23:26:12 10° SE
Meteor 1-14 Rocket 4.2 23:15:32 10° NNW 23:21:14 81° ENE 23:26:48 10° SSE
ERS-1 4.4 23:17:50 10° NNE 23:22:59 88° WNW 23:25:17 34° SSW
X-37B 3.1 23:24:37 14° SE 23:24:37 14° SE 23:25:33 10° SE
Cosmos 1821 Rocket 4.0 23:17:18 10° NNW 23:23:32 61° W 23:27:22 24° SSW
H-2A R/B 2.5 23:19:42 10° SSE 23:24:03 66° ENE 23:28:29 10° N
Cosmos 389 Rocket 3.6 23:24:34 25° SSE 23:26:10 42° E 23:29:34 10° NNE
Cosmos 1818 3.8 23:24:54 39° W 23:26:42 59° NW 23:32:07 10° NE
ATLAS CENTAUR R/B 4.0 23:11:19 10° W 23:26:45 68° N 23:32:16 10° E
SL-8 R/B 4.0 23:30:02 41° SSW 23:30:29 43° SSW 23:35:00 10° ESE
Cosmos 2227 4.4 23:25:22 10° NNW 23:31:04 75° NE 23:36:43 10° SE
SL-24 R/B 4.5 23:30:16 37° SSW 23:31:50 54° W 23:37:04 10° NNW
Iridium 2 4.1 23:29:58 24° SSE 23:32:00 61° E 23:35:44 10° NNE
Cosmos 1602 3.5 23:28:29 10° NNW 23:32:18 68° W 23:33:00 53° SSW
ERS-2 3.3 23:28:51 10° SE 23:32:22 45° ENE 23:35:54 10° N
Helios 1B 4.4 23:29:07 10° SSE 23:33:28 84° WSW 23:37:50 10° NNW
Spot 4 Rocket 4.0 23:30:09 10° NNE 23:35:21 83° ESE 23:38:46 22° SSW
Cosmos 1934 Rocket 3.8 23:32:50 10° NNW 23:38:54 75° W 23:44:57 10° S
Cosmos 1470 Rocket 3.8 23:35:49 10° NNW 23:40:06 48° W 23:41:16 38° SW
USA 307 3.7 23:40:15 30° SSW 23:41:39 40° SSE 23:45:39 10° ENE
Meteor 1-5 Rocket 4.4 23:36:24 10° N 23:41:43 68° ENE 23:47:03 10° SSE
USA 234 3.5 23:36:51 10° SSE 23:42:58 42° SW 23:49:08 10° WNW
ADEOS Rocket 3.6 23:36:43 10° SE 23:43:21 62° ENE 23:49:20 10° N
USA 308 3.7 23:43:03 30° SSW 23:44:34 42° SSE 23:48:36 10° ENE
Cosmos 2227 Rocket 3.9 23:42:07 10° NW 23:43:30 15° WNW 23:43:30 15° WNW
Cosmos 1812 4.2 23:43:22 10° SSE 23:46:55 37° E 23:50:31 10° NNE
Cosmos 1777 Rocket 4.4 23:43:30 10° NW 23:48:20 38° WSW 23:52:44 12° S
Cosmos 1500 3.3 23:45:51 10° N 23:49:44 80° ENE 23:53:34 10° SSE
Cosmos 1656 4.0 23:49:11 29° WSW 23:51:38 47° NW 23:57:00 10° NNE
Cosmos 1898 Rocket 4.0 23:47:02 10° NNW 23:52:15 62° ENE 23:57:29 10° SE
Cosmos 1238 Rocket 4.0 23:45:50 10° NNW 23:52:27 69° W 23:58:43 10° S
Nadezhda 3 Rocket 4.1 23:49:08 24° SW 23:52:48 55° WNW 23:58:52 10° N
Landsat 5 3.6 23:48:39 10° S 23:53:10 70° WSW 23:57:40 10° NNW
Cosmos 1666 3.9 23:51:52 10° N 23:55:36 45° ENE 23:59:16 10° SSE
